TimeEDT,TemperatureF,Dew PointF,Humidity,Sea Level PressureIn,VisibilityMPH,Wind Direction,Wind SpeedMPH,Gust SpeedMPH,PrecipitationIn,Events,Conditions,WindDirDegrees,DateUTC
12:51 AM,48.0,39.0,71,29.95,10.0,NW,6.9,-,N/A,,Partly Cloudy,320,2013-09-23 04:51:00
1:51 AM,46.9,39.0,74,29.96,10.0,NW,8.1,-,N/A,,Scattered Clouds,320,2013-09-23 05:51:00
2:51 AM,48.9,39.9,71,29.96,10.0,NW,9.2,-,N/A,,Mostly Cloudy,320,2013-09-23 06:51:00
3:51 AM,46.9,39.0,74,29.96,10.0,WNW,6.9,-,N/A,,Mostly Cloudy,300,2013-09-23 07:51:00
4:51 AM,45.0,39.0,80,29.97,10.0,WNW,5.8,-,N/A,,Partly Cloudy,300,2013-09-23 08:51:00
5:51 AM,44.1,39.0,82,29.99,10.0,WNW,9.2,-,N/A,,Partly Cloudy,290,2013-09-23 09:51:00
6:51 AM,43.0,37.9,82,30.01,10.0,WNW,6.9,-,N/A,,Partly Cloudy,300,2013-09-23 10:51:00
7:51 AM,45.0,39.0,80,30.03,10.0,WNW,9.2,-,N/A,,Partly Cloudy,290,2013-09-23 11:51:00
8:51 AM,48.9,39.0,69,30.03,10.0,NW,9.2,-,N/A,,Partly Cloudy,320,2013-09-23 12:51:00
9:51 AM,51.1,37.0,59,30.04,10.0,NW,15.0,20.7,N/A,,Partly Cloudy,310,2013-09-23 13:51:00
10:51 AM,52.0,37.9,59,30.04,10.0,NNW,10.4,-,N/A,,Mostly Cloudy,340,2013-09-23 14:51:00
11:51 AM,53.1,39.0,59,30.05,10.0,WNW,11.5,18.4,N/A,,Overcast,300,2013-09-23 15:51:00
12:51 PM,57.0,41.0,55,30.05,10.0,WNW,9.2,-,N/A,,Mostly Cloudy,300,2013-09-23 16:51:00
1:51 PM,57.0,39.9,53,30.02,10.0,NW,4.6,-,N/A,,Mostly Cloudy,310,2013-09-23 17:51:00
2:51 PM,60.1,41.0,49,30.00,10.0,West,9.2,21.9,N/A,,Scattered Clouds,280,2013-09-23 18:51:00
3:51 PM,61.0,39.9,46,29.99,10.0,NW,10.4,18.4,N/A,,Partly Cloudy,310,2013-09-23 19:51:00
4:51 PM,60.1,41.0,49,30.00,10.0,WNW,12.7,-,N/A,,Partly Cloudy,290,2013-09-23 20:51:00
5:51 PM,57.9,39.9,51,30.01,10.0,WNW,10.4,19.6,N/A,,Partly Cloudy,290,2013-09-23 21:51:00
6:51 PM,54.0,39.9,59,30.03,10.0,WNW,16.1,21.9,N/A,,Partly Cloudy,290,2013-09-23 22:51:00
7:51 PM,53.1,39.9,61,30.06,10.0,NW,9.2,-,N/A,,Scattered Clouds,310,2013-09-23 23:51:00
8:51 PM,50.0,39.0,66,30.07,10.0,NW,8.1,-,N/A,,Scattered Clouds,320,2013-09-24 00:51:00
9:51 PM,48.9,39.0,69,30.09,10.0,NW,8.1,-,N/A,,Partly Cloudy,320,2013-09-24 01:51:00
10:51 PM,46.9,39.9,77,30.10,10.0,North,4.6,-,N/A,,Partly Cloudy,10,2013-09-24 02:51:00
11:51 PM,45.0,37.9,76,30.10,10.0,NW,5.8,-,N/A,,Partly Cloudy,310,2013-09-24 03:51:00